SCP
0 0 -0 -0 0 0 0 0 0 0 0 0 0 0 0 0 0 0 0 0 0 0 0 0 0 0 0 0 0 0 0 0
0 -0 0 0 0 0 0 0 0 0 0 0 0 0 0 0 0 0 0 0 0 0 0 0 0 0 0 0 0 0 -0 0
-0 -0 -0 -0 -0 0 0 0 0 0 0 0 0 0 1 0 0 0 0 0 0 0 0 0 0 0 0 0 0 0 0 0
-0 0 0 -0 0 -0 -0 -0 0 -0 0 0 0 0 0 1 1 1 0 0 0 0 0 0 0 0 0 0 0 0 0 0
0 0 0 0 0 1 0 0 0 0 0 0 0 1 1 1 0 0 0 0 0 0 0 0 0 0 0 0 0 0 0 0
0 0 0 0 0 0 0 0 0 0 1 1 1 1 1 1 1 0 1 0 0 0 1 1 0 0 0 0 0 0 0 0
0 0 0 0 0 0 0 0 1 0 1 1 1 1 1 1 1 1 0 0 0 0 0 1 0 0 0 0 0 0 0 0
0 0 0 0 0 0 0 0 0 0 0 0 0 0 0 0 0 0 0 1 1 1 1 1 1 1 0 0 0 0 0 0
0 0 0 0 0 0 0 0 0 0 0 0 0 0 0 0 0 0 0 0 0 1 1 1 1 1 1 0 0 0 0 0
-0 0 0 -0 -0 -0 0 0 0 0 0 0 0 0 0 0 0 0 0 0 0 0 0 1 1 1 1 0 0 0 0 0
-0 0 0 0 -0 -0 -0 -0 0 0 0 0 0 0 0 0 0 0 0 0 0 0 0 0 1 1 0 0 0 0 0 0
-0 0 0 0 0 -0 -0 0 -0 0 0 0 0 0 0 0 0 0 0 0 0 0 0 0 1 1 1 0 0 0 0 0
0 -0 -0 -0 -0 -0 -0 -0 -0 -0 0 0 0 0 0 0 0 0 0 0 0 0 1 1 1 1 1 1 1 0 0 0
0 0 -0 -0 -0 -0 -0 -0 -0 -0 0 0 0 0 0 0 0 0 0 1 1 0 0 1 1 0 0 0 0 0 0 0
0 0 0 0 -0 -0 -0 -0 -0 -0 0 0 0 0 0 0 0 0 0 0 0 0 1 1 1 1 0 0 1 1 0 0
0 0 0 0 0 0 -0 -0 -0 -0 -0 0 0 0 0 0 0 0 0 0 0 0 0 1 1 1 1 1 1 0 0 0
0 0 0 0 0 0 0 -0 -0 -0 -0 -0 -0 0 0 0 0 0 0 0 0 0 0 0 1 1 1 1 1 0 0 0
0 0 0 0 0 0 0 0 0 0 -0 -0 -0 0 0 0 0 0 0 0 0 0 0 0 0 0 1 1 0 1 0 0
0 0 0 0 0 0 0 0 0 0 0 -0 -0 -0 -0 0 0 0 0 0 0 0 0 0 0 0 1 1 1 0 1 0
Wind_Speed_500mb
21 22 22 17 13 13 17 19 21 19 17 13 12 13 11 9 8 8 9 10 11 11 12 12 13 13 13 14 14 14 14 16
18 21 19 15 10 8 10 13 16 17 15 14 12 13 13 12 11 12 12 12 13 14 14 15 16 17 17 18 18 18 18 19
16 18 16 15 13 9 5 4 3 3 7 11 13 15 16 17 17 17 18 18 19 20 20 20 20 21 22 23 23 22 21 22
20 16 15 12 10 7 7 5 5 4 4 7 11 17 21 23 24 26 26 26 26 26 26 26 25 25 26 27 28 29 27 27
22 14 8 5 6 3 3 5 3 3 4 5 10 18 24 28 30 33 33 33 32 33 33 33 32 31 31 31 33 34 33 34
30 21 17 16 10 4 4 10 6 7 7 5 17 22 28 31 31 34 37 37 38 38 37 37 36 36 37 38 39 39 39 39
36 29 18 15 13 15 6 6 7 9 12 15 25 28 26 28 33 38 40 41 40 39 36 37 39 39 41 45 46 45 45 41
27 21 15 16 15 11 5 3 7 14 18 18 18 19 29 32 31 33 39 47 47 41 39 37 35 34 33 34 41 51 49 46
31 30 20 20 21 19 15 6 7 16 17 18 21 22 28 25 34 33 44 45 43 36 32 33 38 37 40 37 33 34 44 40
31 29 29 27 28 28 25 24 20 14 17 22 24 29 30 34 39 42 52 47 46 43 39 38 40 41 47 46 46 39 35 40
40 38 39 42 44 42 39 39 37 32 22 21 29 31 30 36 39 49 49 47 53 54 53 52 49 52 54 47 45 54 49 45
37 35 43 53 53 59 52 48 48 45 34 24 23 28 35 35 38 39 48 51 51 52 53 54 50 56 59 58 54 47 45 53
33 27 31 41 51 55 55 51 57 54 43 37 31 27 29 31 32 38 43 49 54 53 58 56 61 58 60 63 63 64 63 51
26 24 29 34 39 45 50 56 69 64 49 41 38 38 38 38 37 37 40 45 53 58 65 67 66 68 68 73 74 65 59 59
21 23 30 30 38 40 41 50 63 73 60 48 44 43 42 40 40 39 40 43 47 52 62 64 73 71 70 72 73 62 63 65
15 22 24 31 40 38 40 46 56 66 61 64 57 52 48 47 48 48 46 42 41 45 48 63 67 69 68 68 73 72 72 72
19 19 23 39 38 32 37 43 51 62 62 65 64 70 63 55 52 55 59 59 54 51 49 53 56 63 68 67 66 72 72 72
15 20 38 39 30 28 36 42 51 58 58 68 76 80 73 69 65 64 64 64 65 60 58 55 52 55 60 65 63 63 30 40
16 32 34 28 26 32 38 40 46 52 64 74 78 80 83 86 84 75 70 65 61 60 62 64 58 53 51 58 71 66 65 68
Wind_Direction_500mb
168 166 174 186 173 171 169 175 177 179 173 169 178 181 186 190 196 198 202 208 214 216 215 219 223 223 223 227 228 225 227 231
152 162 161 147 131 137 164 176 181 186 191 193 201 212 213 219 227 239 242 245 249 250 246 243 242 241 237 238 238 233 232 234
148 154 152 153 139 128 130 103 113 189 222 229 230 233 232 238 247 252 255 255 258 258 256 256 259 257 256 254 252 247 242 241
153 168 165 151 138 141 139 157 161 165 206 250 261 261 258 250 250 256 261 263 262 261 261 260 259 260 260 260 261 260 256 250
121 112 89 109 114 46 256 203 219 203 223 263 293 285 273 262 262 262 261 262 263 265 266 263 261 261 262 260 259 259 259 258
81 116 75 63 49 342 208 205 271 273 279 294 309 293 275 270 268 268 269 268 266 264 263 263 264 265 266 266 263 261 260 258
72 70 65 77 56 24 71 157 200 265 270 291 310 288 280 276 270 270 269 266 264 260 257 255 256 261 264 268 269 268 266 268
48 55 50 29 21 30 5 316 242 211 254 264 293 295 286 287 279 290 285 272 262 256 258 262 264 264 272 276 271 265 268 270
41 51 45 31 20 15 19 27 265 257 263 262 270 285 294 287 294 295 288 280 265 254 253 266 272 271 271 273 277 278 261 259
20 17 22 13 8 360 352 347 337 306 271 252 255 265 271 281 283 286 284 281 273 269 265 264 266 270 275 270 270 271 260 256
350 352 0 357 355 348 343 339 336 331 314 279 261 263 268 269 276 281 273 273 283 259 272 267 266 271 271 276 270 270 265 263
9 3 358 357 351 345 338 332 333 330 320 302 278 273 273 271 275 285 269 274 281 272 266 269 266 270 268 269 264 263 266 259
355 1 358 356 352 351 348 347 347 337 321 307 295 281 280 280 285 278 268 272 272 265 268 265 262 267 265 270 270 266 268 266
343 346 350 354 352 350 348 350 349 347 335 323 311 297 286 291 289 287 284 278 278 268 256 259 262 264 269 273 271 267 262 269
326 335 345 344 345 343 343 344 349 351 346 338 329 318 308 300 298 294 286 282 277 276 269 263 263 264 266 277 264 263 266 271
310 326 331 336 337 332 335 343 346 351 354 352 340 329 324 313 294 290 288 288 279 278 265 254 259 264 264 265 267 267 264 267
327 324 328 333 324 322 333 338 339 340 343 343 343 340 328 317 313 304 295 287 285 286 280 266 260 262 263 261 260 262 270 273
330 331 331 323 312 323 328 330 331 331 333 335 335 334 331 326 315 308 306 302 289 279 280 278 280 270 264 262 261 255 259 252
338 334 327 314 313 318 325 326 326 326 328 333 334 329 324 322 317 308 302 301 296 287 275 271 275 275 273 268 265 262 256 258
Wind_Speed_850mb
21 22 22 17 13 13 17 19 21 19 17 13 12 13 11 9 8 8 9 10 11 11 12 12 13 13 13 14 14 14 14 16
18 21 19 15 10 8 10 13 16 17 15 14 12 13 13 12 11 12 12 12 13 14 14 15 16 17 17 18 18 18 18 19
16 18 16 15 13 9 5 4 3 3 7 11 13 15 16 17 17 17 18 18 19 20 20 20 20 21 22 23 23 22 21 22
20 16 15 12 10 7 7 5 5 4 4 7 11 17 21 23 24 26 26 26 26 26 26 26 25 25 26 27 28 29 27 27
22 14 8 5 6 3 3 5 3 3 4 5 10 18 24 28 30 33 33 33 32 33 33 33 32 31 31 31 33 34 33 34
30 21 17 16 10 4 4 10 6 7 7 5 17 22 28 31 31 34 37 37 38 38 37 37 36 36 37 38 39 39 39 39
36 29 18 15 13 15 6 6 7 9 12 15 25 28 26 28 33 38 40 41 40 39 36 37 39 39 41 45 46 45 45 41
27 21 15 16 15 11 5 3 7 14 18 18 18 19 29 32 31 33 39 47 47 41 39 37 35 34 33 34 41 51 49 46
31 30 20 20 21 19 15 6 7 16 17 18 21 22 28 25 34 33 44 45 43 36 32 33 38 37 40 37 33 34 44 40
31 29 29 27 28 28 25 24 20 14 17 22 24 29 30 34 39 42 52 47 46 43 39 38 40 41 47 46 46 39 35 40
40 38 39 42 44 42 39 39 37 32 22 21 29 31 30 36 39 49 49 47 53 54 53 52 49 52 54 47 45 54 49 45
37 35 43 53 53 59 52 48 48 45 34 24 23 28 35 35 38 39 48 51 51 52 53 54 50 56 59 58 54 47 45 53
33 27 31 41 51 55 55 51 57 54 43 37 31 27 29 31 32 38 43 49 54 53 58 56 61 58 60 63 63 64 63 51
26 24 29 34 39 45 50 56 69 64 49 41 38 38 38 38 37 37 40 45 53 58 65 67 66 68 68 73 74 65 59 59
21 23 30 30 38 40 41 50 63 73 60 48 44 43 42 40 40 39 40 43 47 52 62 64 73 71 70 72 73 62 63 65
15 22 24 31 40 38 40 46 56 66 61 64 57 52 48 47 48 48 46 42 41 45 48 63 67 69 68 68 73 72 72 72
19 19 23 39 38 32 37 43 51 62 62 65 64 70 63 55 52 55 59 59 54 51 49 53 56 63 68 67 66 72 72 72
15 20 38 39 30 28 36 42 51 58 58 68 76 80 73 69 65 64 64 64 65 60 58 55 52 55 60 65 63 63 30 40
16 32 34 28 26 32 38 40 46 52 64 74 78 80 83 86 84 75 70 65 61 60 62 64 58 53 51 58 71 66 65 68
Wind_Direction_850mb
168 166 174 186 173 171 169 175 177 179 173 169 178 181 186 190 196 198 202 208 214 216 215 219 223 223 223 227 228 225 227 231
152 162 161 147 131 137 164 176 181 186 191 193 201 212 213 219 227 239 242 245 249 250 246 243 242 241 237 238 238 233 232 234
148 154 152 153 139 128 130 103 113 189 222 229 230 233 232 238 247 252 255 255 258 258 256 256 259 257 256 254 252 247 242 241
153 168 165 151 138 141 139 157 161 165 206 250 261 261 258 250 250 256 261 263 262 261 261 260 259 260 260 260 261 260 256 250
121 112 89 109 114 46 256 203 219 203 223 263 293 285 273 262 262 262 261 262 263 265 266 263 261 261 262 260 259 259 259 258
81 116 75 63 49 342 208 205 271 273 279 294 309 293 275 270 268 268 269 268 266 264 263 263 264 265 266 266 263 261 260 258
72 70 65 77 56 24 71 157 200 265 270 291 310 288 280 276 270 270 269 266 264 260 257 255 256 261 264 268 269 268 266 268
48 55 50 29 21 30 5 316 242 211 254 264 293 295 286 287 279 290 285 272 262 256 258 262 264 264 272 276 271 265 268 270
41 51 45 31 20 15 19 27 265 257 263 262 270 285 294 287 294 295 288 280 265 254 253 266 272 271 271 273 277 278 261 259
20 17 22 13 8 360 352 347 337 306 271 252 255 265 271 281 283 286 284 281 273 269 265 264 266 270 275 270 270 271 260 256
350 352 0 357 355 348 343 339 336 331 314 279 261 263 268 269 276 281 273 273 283 259 272 267 266 271 271 276 270 270 265 263
9 3 358 357 351 345 338 332 333 330 320 302 278 273 273 271 275 285 269 274 281 272 266 269 266 270 268 269 264 263 266 259
355 1 358 356 352 351 348 347 347 337 321 307 295 281 280 280 285 278 268 272 272 265 268 265 262 267 265 270 270 266 268 266
343 346 350 354 352 350 348 350 349 347 335 323 311 297 286 291 289 287 284 278 278 268 256 259 262 264 269 273 271 267 262 269
326 335 345 344 345 343 343 344 349 351 346 338 329 318 308 300 298 294 286 282 277 276 269 263 263 264 266 277 264 263 266 271
310 326 331 336 337 332 335 343 346 351 354 352 340 329 324 313 294 290 288 288 279 278 265 254 259 264 264 265 267 267 264 267
327 324 328 333 324 322 333 338 339 340 343 343 343 340 328 317 313 304 295 287 285 286 280 266 260 262 263 261 260 262 270 273
330 331 331 323 312 323 328 330 331 331 333 335 335 334 331 326 315 308 306 302 289 279 280 278 280 270 264 262 261 255 259 252
338 334 327 314 313 318 325 326 326 326 328 333 334 329 324 322 317 308 302 301 296 287 275 271 275 275 273 268 265 262 256 258